QPF
0.00 0.00 0.01 0.01 0.01 0.01 0.01 0.01 0.00 0.01 0.01 0.02 0.01 0.00 0.00 0.01 0.01 0.01 0.01 0.02 0.02 0.02 0.01 0.01 0.01 0.00 0.00 0.00 0.00 0.01 0.01 0.00 0.00 0.01 0.01 0.02 0.01 0.00 0.00 0.00 0.00 0.00 0.00
0.00 0.01 0.01 0.01 0.01 0.01 0.01 0.01 0.00 0.01 0.02 0.02 0.01 0.00 0.00 0.00 0.00 0.01 0.02 0.03 0.03 0.03 0.02 0.02 0.02 0.01 0.00 0.00 0.01 0.02 0.01 0.01 0.01 0.00 0.01 0.02 0.02 0.01 0.00 0.00 0.00 0.00 0.00
0.01 0.02 0.02 0.02 0.01 0.01 0.01 0.01 0.01 0.00 0.01 0.01 0.00 0.00 0.00 0.00 0.00 0.00 0.01 0.02 0.03 0.03 0.03 0.02 0.04 0.05 0.02 0.02 0.04 0.04 0.03 0.01 0.01 0.00 0.00 0.02 0.02 0.01 0.00 0.00 0.00 0.00 0.00
0.01 0.01 0.02 0.03 0.03 0.02 0.01 0.01 0.01 0.01 0.01 0.00 0.00 0.00 0.00 0.00 0.00 0.00 0.00 0.01 0.02 0.03 0.04 0.05 0.07 0.08 0.06 0.06 0.06 0.05 0.04 0.03 0.01 0.00 0.00 0.00 0.01 0.01 0.01 0.00 0.00 0.00 0.00
0.00 0.01 0.02 0.03 0.04 0.03 0.03 0.03 0.02 0.01 0.01 0.01 0.01 0.01 0.01 0.01 0.00 0.00 0.00 0.00 0.01 0.03 0.04 0.05 0.06 0.07 0.06 0.06 0.06 0.06 0.06 0.05 0.02 0.00 0.00 0.00 0.01 0.01 0.01 0.01 0.00 0.00 0.00
0.00 0.01 0.01 0.03 0.04 0.04 0.04 0.04 0.03 0.02 0.03 0.03 0.02 0.03 0.03 0.03 0.02 0.02 0.01 0.01 0.00 0.01 0.03 0.04 0.04 0.07 0.06 0.05 0.06 0.08 0.09 0.08 0.02 0.00 0.00 0.00 0.02 0.04 0.04 0.02 0.01 0.00 0.00
0.00 0.01 0.01 0.02 0.03 0.03 0.04 0.05 0.04 0.04 0.04 0.04 0.03 0.05 0.06 0.05 0.04 0.04 0.04 0.03 0.01 0.01 0.01 0.03 0.04 0.07 0.07 0.06 0.07 0.11 0.11 0.06 0.02 0.02 0.00 0.01 0.03 0.10 0.20 0.14 0.04 0.00 0.00
0.00 0.00 0.00 0.00 0.01 0.01 0.03 0.05 0.06 0.06 0.06 0.05 0.05 0.05 0.05 0.04 0.05 0.06 0.06 0.05 0.04 0.02 0.02 0.02 0.03 0.06 0.08 0.08 0.07 0.09 0.09 0.03 0.01 0.02 0.01 0.01 0.03 0.15 0.25 0.26 0.13 0.03 0.00
0.00 0.00 0.00 0.00 0.00 0.00 0.01 0.03 0.04 0.05 0.04 0.04 0.04 0.04 0.03 0.02 0.04 0.06 0.07 0.06 0.05 0.05 0.04 0.03 0.01 0.02 0.04 0.06 0.06 0.05 0.03 0.01 0.01 0.03 0.01 0.01 0.03 0.15 0.23 0.30 0.23 0.10 0.02
0.00 0.00 0.00 0.00 0.00 0.00 0.00 0.01 0.02 0.02 0.02 0.03 0.03 0.03 0.03 0.03 0.04 0.05 0.05 0.04 0.06 0.08 0.07 0.04 0.02 0.02 0.01 0.02 0.02 0.02 0.01 0.01 0.02 0.03 0.03 0.02 0.01 0.09 0.19 0.26 0.25 0.18 0.08
0.00 0.00 0.00 0.00 0.00 0.00 0.00 0.00 0.00 0.00 0.01 0.01 0.01 0.02 0.03 0.02 0.03 0.03 0.03 0.03 0.05 0.08 0.07 0.05 0.05 0.04 0.02 0.01 0.00 0.00 0.00 0.00 0.02 0.03 0.03 0.01 0.01 0.09 0.16 0.21 0.27 0.24 0.15
0.00 0.00 0.00 0.00 0.00 0.00 0.00 0.00 0.00 0.00 0.00 0.00 0.00 0.00 0.01 0.01 0.02 0.02 0.03 0.03 0.04 0.04 0.05 0.05 0.07 0.05 0.03 0.02 0.02 0.00 0.00 0.00 0.00 0.00 0.01 0.00 0.01 0.06 0.10 0.15 0.25 0.28 0.21
0.00 0.00 0.00 0.00 0.00 0.00 0.00 0.00 0.00 0.00 0.00 0.00 0.00 0.00 0.00 0.00 0.01 0.01 0.01 0.02 0.03 0.03 0.05 0.08 0.11 0.10 0.09 0.09 0.06 0.02 0.00 0.00 0.00 0.00 0.00 0.00 0.00 0.01 0.04 0.12 0.21 0.28 0.26
0.00 0.00 0.00 0.00 0.00 0.00 0.00 0.00 0.00 0.00 0.00 0.00 0.00 0.00 0.00 0.00 0.00 0.00 0.00 0.01 0.01 0.03 0.05 0.10 0.13 0.14 0.14 0.12 0.10 0.05 0.02 0.01 0.00 0.00 0.00 0.00 0.00 0.00 0.01 0.08 0.20 0.26 0.29
0.00 0.00 0.00 0.00 0.00 0.00 0.00 0.00 0.00 0.00 0.00 0.00 0.00 0.00 0.00 0.00 0.00 0.00 0.00 0.00 0.00 0.01 0.02 0.04 0.08 0.09 0.10 0.11 0.10 0.07 0.04 0.02 0.01 0.00 0.00 0.00 0.00 0.00 0.00 0.02 0.10 0.22 0.27
0.00 0.00 0.00 0.00 0.00 0.00 0.00 0.00 0.00 0.00 0.00 0.00 0.00 0.00 0.00 0.00 0.00 0.00 0.00 0.00 0.00 0.00 0.00 0.01 0.01 0.03 0.04 0.06 0.06 0.05 0.04 0.03 0.01 0.00 0.00 0.00 0.00 0.00 0.00 0.00 0.03 0.11 0.21
0.00 0.00 0.00 0.00 0.00 0.00 0.00 0.00 0.00 0.00 0.00 0.00 0.00 0.00 0.00 0.00 0.00 0.00 0.00 0.00 0.00 0.00 0.00 0.00 0.00 0.00 0.00 0.01 0.02 0.02 0.02 0.02 0.01 0.01 0.00 0.00 0.00 0.00 0.00 0.00 0.00 0.04 0.11
0.00 0.00 0.00 0.00 0.00 0.00 0.00 0.00 0.00 0.00 0.00 0.00 0.00 0.00 0.00 0.00 0.00 0.00 0.00 0.00 0.00 0.00 0.00 0.00 0.00 0.00 0.00 0.00 0.00 0.00 0.00 0.01 0.01 0.00 0.00 0.00 0.00 0.00 0.00 0.00 0.00 0.01 0.05
0.00 0.00 0.00 0.00 0.00 0.00 0.00 0.00 0.00 0.00 0.00 0.00 0.00 0.00 0.00 0.00 0.00 0.00 0.00 0.00 0.00 0.00 0.00 0.00 0.00 0.00 0.00 0.00 0.00 0.00 0.00 0.00 0.00 0.00 0.00 0.00 0.00 0.00 0.00 0.00 0.00 0.00 0.03
0.00 0.00 0.00 0.00 0.00 0.00 0.00 0.00 0.00 0.00 0.00 0.00 0.00 0.00 0.00 0.00 0.00 0.00 0.00 0.00 0.00 0.00 0.00 0.00 0.00 0.00 0.00 0.00 0.00 0.00 0.00 0.00 0.00 0.00 0.00 0.00 0.00 0.00 0.00 0.00 0.00 0.00 0.01
0.00 0.00 0.00 0.00 0.00 0.00 0.00 0.00 0.00 0.00 0.00 0.00 0.00 0.00 0.00 0.00 0.00 0.00 0.00 0.00 0.00 0.00 0.00 0.00 0.00 0.00 0.00 0.00 0.00 0.00 0.00 0.00 0.00 0.00 0.00 0.00 0.00 0.00 0.00 0.00 0.00 0.00 0.00
0.00 0.00 0.00 0.00 0.00 0.00 0.00 0.00 0.00 0.00 0.00 0.00 0.00 0.00 0.00 0.00 0.00 0.00 0.00 0.00 0.00 0.00 0.00 0.00 0.00 0.00 0.00 0.00 0.01 0.01 0.00 0.00 0.00 0.00 0.00 0.00 0.00 0.00 0.00 0.00 0.00 0.00 0.00
0.00 0.00 0.00 0.00 0.00 0.00 0.00 0.00 0.00 0.00 0.00 0.00 0.00 0.00 0.00 0.00 0.00 0.00 0.00 0.00 0.00 0.00 0.00 0.00 0.00 0.00 0.00 0.00 0.00 0.02 0.02 0.00 0.00 0.00 0.00 0.00 0.00 0.00 0.00 0.00 0.00 0.01 0.01
0.00 0.00 0.00 0.00 0.00 0.00 0.00 0.00 0.00 0.00 0.00 0.00 0.00 0.00 0.00 0.00 0.00 0.00 0.00 0.00 0.00 0.00 0.00 0.00 0.00 0.00 0.00 0.00 0.00 0.01 0.02 0.02 0.02 0.01 0.00 0.00 0.00 0.00 0.00 0.00 0.00 0.01 0.01
0.00 0.00 0.00 0.00 0.00 0.00 0.00 0.00 0.00 0.00 0.00 0.00 0.00 0.00 0.00 0.00 0.00 0.00 0.00 0.00 0.00 0.00 0.00 0.00 0.00 0.00 0.00 0.00 0.00 0.00 0.01 0.02 0.03 0.03 0.01 0.00 0.00 0.00 0.00 0.00 0.00 0.01 0.01
0.00 0.00 0.00 0.00 0.00 0.00 0.00 0.00 0.00 0.00 0.00 0.00 0.00 0.00 0.00 0.00 0.00 0.00 0.00 0.00 0.00 0.00 0.00 0.00 0.00 0.00 0.00 0.00 0.00 0.00 0.01 0.01 0.02 0.04 0.03 0.01 0.01 0.00 0.00 0.00 0.00 0.00 0.00
MSLP
1019.80 1019.18 1018.59 1018.11 1017.80 1017.65 1017.60 1017.60 1017.56 1017.45 1017.24 1016.96 1016.66 1016.39 1016.20 1016.09 1016.06 1016.07 1016.07 1016.04 1015.95 1015.80 1015.62 1015.43 1015.27 1015.16 1015.10 1015.07 1015.04 1015.01 1014.96 1014.88 1014.78 1014.70 1014.64 1014.62 1014.63 1014.68 1014.74 1014.80 1014.84 1014.88 1014.91
1020.87 1020.06 1019.28 1018.63 1018.19 1017.95 1017.84 1017.79 1017.74 1017.61 1017.39 1017.10 1016.79 1016.52 1016.32 1016.21 1016.17 1016.17 1016.16 1016.11 1016.00 1015.84 1015.65 1015.47 1015.31 1015.22 1015.16 1015.14 1015.11 1015.07 1014.99 1014.90 1014.79 1014.69 1014.64 1014.64 1014.68 1014.76 1014.84 1014.91 1014.96 1014.98 1015.00
1021.94 1020.95 1019.99 1019.20 1018.64 1018.30 1018.12 1018.03 1017.94 1017.79 1017.55 1017.25 1016.94 1016.65 1016.44 1016.31 1016.25 1016.22 1016.18 1016.09 1015.95 1015.78 1015.58 1015.40 1015.27 1015.19 1015.16 1015.15 1015.12 1015.07 1014.98 1014.86 1014.74 1014.64 1014.60 1014.62 1014.69 1014.80 1014.91 1015.00 1015.05 1015.07 1015.07
1022.91 1021.78 1020.70 1019.80 1019.15 1018.74 1018.50 1018.37 1018.23 1018.05 1017.78 1017.46 1017.11 1016.81 1016.57 1016.40 1016.30 1016.22 1016.13 1016.00 1015.83 1015.62 1015.42 1015.25 1015.14 1015.09 1015.08 1015.09 1015.07 1015.01 1014.91 1014.77 1014.63 1014.53 1014.50 1014.54 1014.64 1014.78 1014.93 1015.04 1015.11 1015.13 1015.12
1023.71 1022.50 1021.37 1020.43 1019.74 1019.29 1019.02 1018.84 1018.65 1018.42 1018.10 1017.73 1017.35 1017.00 1016.71 1016.50 1016.35 1016.21 1016.06 1015.87 1015.65 1015.42 1015.20 1015.04 1014.94 1014.92 1014.94 1014.96 1014.95 1014.89 1014.77 1014.62 1014.47 1014.37 1014.34 1014.39 1014.53 1014.70 1014.88 1015.03 1015.12 1015.15 1015.15
1024.29 1023.10 1021.99 1021.08 1020.41 1019.97 1019.68 1019.46 1019.22 1018.91 1018.52 1018.09 1017.64 1017.24 1016.90 1016.63 1016.41 1016.21 1015.99 1015.74 1015.47 1015.20 1014.96 1014.80 1014.72 1014.71 1014.75 1014.79 1014.78 1014.72 1014.59 1014.43 1014.26 1014.15 1014.12 1014.19 1014.35 1014.55 1014.77 1014.95 1015.07 1015.13 1015.14
1024.70 1023.58 1022.57 1021.76 1021.17 1020.77 1020.48 1020.22 1019.91 1019.52 1019.05 1018.53 1018.00 1017.53 1017.13 1016.80 1016.52 1016.25 1015.96 1015.65 1015.32 1015.01 1014.75 1014.57 1014.49 1014.49 1014.53 1014.57 1014.57 1014.51 1014.37 1014.19 1014.02 1013.90 1013.87 1013.95 1014.12 1014.35 1014.59 1014.81 1014.97 1015.06 1015.11
1024.99 1024.00 1023.14 1022.48 1022.00 1021.66 1021.38 1021.08 1020.69 1020.21 1019.64 1019.03 1018.43 1017.89 1017.42 1017.03 1016.69 1016.36 1016.01 1015.64 1015.25 1014.89 1014.59 1014.38 1014.28 1014.27 1014.30 1014.34 1014.33 1014.25 1014.11 1013.93 1013.75 1013.63 1013.60 1013.68 1013.86 1014.10 1014.36 1014.61 1014.80 1014.94 1015.03
1025.27 1024.44 1023.76 1023.25 1022.88 1022.59 1022.31 1021.97 1021.51 1020.93 1020.27 1019.57 1018.90 1018.30 1017.78 1017.35 1016.95 1016.56 1016.16 1015.72 1015.28 1014.86 1014.51 1014.25 1014.11 1014.06 1014.07 1014.08 1014.05 1013.97 1013.82 1013.64 1013.47 1013.35 1013.33 1013.41 1013.59 1013.83 1014.11 1014.37 1014.59 1014.76 1014.90
1025.63 1024.96 1024.44 1024.06 1023.78 1023.52 1023.23 1022.82 1022.29 1021.63 1020.89 1020.13 1019.41 1018.77 1018.22 1017.75 1017.31 1016.87 1016.41 1015.91 1015.40 1014.92 1014.50 1014.18 1013.98 1013.87 1013.83 1013.80 1013.75 1013.65 1013.51 1013.34 1013.18 1013.08 1013.07 1013.16 1013.34 1013.58 1013.85 1014.11 1014.34 1014.53 1014.70
1026.13 1025.60 1025.20 1024.91 1024.67 1024.41 1024.07 1023.60 1022.99 1022.27 1021.48 1020.69 1019.96 1019.31 1018.74 1018.25 1017.78 1017.29 1016.77 1016.21 1015.63 1015.06 1014.57 1014.17 1013.88 1013.70 1013.59 1013.50 1013.41 1013.30 1013.16 1013.01 1012.88 1012.81 1012.83 1012.93 1013.11 1013.34 1013.59 1013.84 1014.06 1014.25 1014.44
1026.81 1026.38 1026.04 1025.78 1025.52 1025.22 1024.81 1024.27 1023.60 1022.84 1022.04 1021.26 1020.54 1019.90 1019.35 1018.84 1018.34 1017.81 1017.23 1016.59 1015.94 1015.29 1014.71 1014.21 1013.83 1013.55 1013.35 1013.19 1013.05 1012.91 1012.77 1012.64 1012.55 1012.53 1012.58 1012.71 1012.90 1013.12 1013.35 1013.56 1013.75 1013.93 1014.11
1027.64 1027.26 1026.94 1026.64 1026.32 1025.94 1025.44 1024.83 1024.12 1023.35 1022.57 1021.83 1021.15 1020.56 1020.03 1019.52 1018.99 1018.42 1017.77 1017.07 1016.33 1015.59 1014.92 1014.32 1013.83 1013.44 1013.14 1012.89 1012.68 1012.50 1012.35 1012.24 1012.19 1012.22 1012.32 1012.48 1012.68 1012.90 1013.10 1013.28 1013.43 1013.57 1013.72
1028.56 1028.19 1027.85 1027.48 1027.07 1026.57 1025.98 1025.30 1024.57 1023.81 1023.08 1022.40 1021.80 1021.26 1020.76 1020.26 1019.71 1019.08 1018.38 1017.60 1016.78 1015.97 1015.20 1014.51 1013.91 1013.40 1012.98 1012.63 1012.33 1012.09 1011.91 1011.80 1011.78 1011.85 1012.00 1012.20 1012.43 1012.64 1012.83 1012.97 1013.08 1013.18 1013.29
1029.49 1029.13 1028.72 1028.27 1027.74 1027.13 1026.45 1025.72 1024.98 1024.26 1023.59 1022.99 1022.47 1021.99 1021.52 1021.01 1020.44 1019.77 1019.01 1018.17 1017.29 1016.41 1015.56 1014.79 1014.08 1013.46 1012.91 1012.44 1012.03 1011.70 1011.47 1011.34 1011.32 1011.42 1011.60 1011.84 1012.10 1012.33 1012.51 1012.62 1012.70 1012.75 1012.83
1030.36 1029.99 1029.53 1028.99 1028.36 1027.65 1026.90 1026.13 1025.39 1024.71 1024.11 1023.59 1023.14 1022.70 1022.25 1021.74 1021.14 1020.43 1019.62 1018.74 1017.82 1016.90 1016.01 1015.16 1014.37 1013.64 1012.97 1012.36 1011.83 1011.38 1011.06 1010.87 1010.83 1010.92 1011.12 1011.39 1011.67 1011.91 1012.10 1012.21 1012.27 1012.30 1012.35
1031.11 1030.74 1030.26 1029.65 1028.94 1028.16 1027.35 1026.56 1025.83 1025.18 1024.64 1024.18 1023.76 1023.36 1022.91 1022.39 1021.76 1021.02 1020.19 1019.29 1018.36 1017.43 1016.52 1015.63 1014.78 1013.96 1013.17 1012.43 1011.75 1011.17 1010.72 1010.44 1010.32 1010.38 1010.57 1010.83 1011.13 1011.39 1011.59 1011.71 1011.77 1011.80 1011.85
1031.72 1031.38 1030.89 1030.26 1029.50 1028.67 1027.83 1027.02 1026.29 1025.67 1025.15 1024.72 1024.32 1023.92 1023.46 1022.91 1022.25 1021.50 1020.66 1019.77 1018.87 1017.96 1017.06 1016.18 1015.29 1014.40 1013.51 1012.64 1011.81 1011.08 1010.49 1010.07 1009.85 1009.83 1009.96 1010.20 1010.48 1010.75 1010.97 1011.11 1011.19 1011.24 1011.31
1032.22 1031.93 1031.46 1030.82 1030.05 1029.21 1028.35 1027.53 1026.80 1026.17 1025.65 1025.21 1024.79 1024.36 1023.87 1023.29 1022.61 1021.85 1021.03 1020.17 1019.32 1018.46 1017.61 1016.75 1015.86 1014.93 1013.96 1012.98 1012.02 1011.13 1010.38 1009.81 1009.45 1009.31 1009.35 1009.52 1009.77 1010.02 1010.25 1010.42 1010.53 1010.62 1010.72
1032.65 1032.41 1031.99 1031.37 1030.61 1029.77 1028.90 1028.07 1027.32 1026.67 1026.12 1025.64 1025.17 1024.69 1024.14 1023.52 1022.83 1022.07 1021.28 1020.47 1019.68 1018.90 1018.11 1017.29 1016.43 1015.48 1014.46 1013.39 1012.32 1011.30 1010.39 1009.66 1009.15 1008.86 1008.78 1008.85 1009.03 1009.25 1009.47 1009.65 1009.80 1009.93 1010.08
1033.06 1032.87 1032.49 1031.92 1031.19 1030.35 1029.48 1028.64 1027.86 1027.17 1026.56 1026.01 1025.47 1024.92 1024.32 1023.66 1022.94 1022.19 1021.43 1020.68 1019.95 1019.24 1018.52 1017.76 1016.92 1015.99 1014.95 1013.83 1012.67 1011.54 1010.51 1009.64 1008.97 1008.52 1008.30 1008.25 1008.33 1008.49 1008.67 1008.86 1009.03 1009.20 1009.39
1033.48 1033.34 1032.99 1032.46 1031.75 1030.94 1030.08 1029.22 1028.40 1027.66 1026.98 1026.35 1025.73 1025.11 1024.44 1023.74 1023.00 1022.25 1021.51 1020.80 1020.13 1019.47 1018.80 1018.08 1017.29 1016.37 1015.34 1014.20 1013.01 1011.81 1010.69 1009.70 1008.90 1008.31 1007.94 1007.75 1007.72 1007.79 1007.93 1008.09 1008.27 1008.47 1008.68
1033.92 1033.80 1033.48 1032.97 1032.30 1031.51 1030.65 1029.78 1028.94 1028.14 1027.40 1026.69 1025.99 1025.29 1024.57 1023.82 1023.06 1022.30 1021.56 1020.87 1020.21 1019.57 1018.93 1018.24 1017.47 1016.58 1015.57 1014.45 1013.26 1012.04 1010.88 1009.82 1008.92 1008.21 1007.71 1007.40 1007.25 1007.22 1007.29 1007.41 1007.58 1007.77 1008.00
1034.36 1034.24 1033.93 1033.45 1032.80 1032.03 1031.19 1030.32 1029.46 1028.63 1027.83 1027.05 1026.29 1025.53 1024.75 1023.95 1023.16 1022.37 1021.62 1020.90 1020.22 1019.56 1018.91 1018.21 1017.44 1016.58 1015.60 1014.51 1013.36 1012.18 1011.02 1009.94 1008.99 1008.20 1007.60 1007.17 1006.91 1006.79 1006.79 1006.86 1007.00 1007.18 1007.40
1034.77 1034.62 1034.32 1033.85 1033.23 1032.49 1031.68 1030.82 1029.96 1029.11 1028.27 1027.45 1026.64 1025.82 1024.99 1024.16 1023.32 1022.49 1021.69 1020.92 1020.18 1019.47 1018.75 1018.02 1017.23 1016.37 1015.42 1014.39 1013.30 1012.17 1011.06 1010.00 1009.04 1008.22 1007.55 1007.05 1006.70 1006.50 1006.42 1006.45 1006.55 1006.72 1006.93
1035.09 1034.92 1034.61 1034.15 1033.56 1032.87 1032.10 1031.27 1030.42 1029.57 1028.72 1027.87 1027.02 1026.17 1025.30 1024.42 1023.54 1022.65 1021.79 1020.94 1020.11 1019.31 1018.51 1017.71 1016.88 1016.01 1015.08 1014.10 1013.08 1012.03 1010.99 1009.99 1009.05 1008.23 1007.53 1006.97 1006.56 1006.29 1006.17 1006.15 1006.23 1006.38 1006.58
Thickness
5705 5708 5707 5709 5710 5712 5713 5714 5715 5716 5717 5718 5719 5719 5720 5721 5721 5722 5722 5722 5723 5724 5725 5725 5726 5726 5727 5729 5730 5732 5734 5734 5734 5734 5735 5735 5736 5735 5735 5735 5736 5738 5737
5695 5701 5700 5702 5703 5705 5706 5707 5708 5709 5710 5711 5712 5712 5713 5714 5715 5716 5717 5717 5719 5720 5721 5722 5723 5723 5724 5725 5727 5728 5730 5731 5731 5731 5732 5733 5733 5733 5733 5733 5734 5737 5735
5682 5687 5691 5693 5696 5698 5699 5701 5702 5703 5704 5705 5705 5706 5707 5707 5709 5710 5711 5712 5713 5715 5716 5717 5718 5720 5721 5722 5723 5724 5726 5727 5727 5728 5730 5732 5732 5731 5730 5730 5730 5731 5732
5668 5673 5676 5682 5687 5690 5692 5694 5695 5696 5697 5698 5699 5699 5700 5701 5702 5703 5705 5706 5707 5709 5710 5712 5714 5715 5717 5718 5719 5719 5721 5722 5723 5724 5728 5731 5730 5728 5727 5726 5727 5728 5728
5659 5663 5666 5672 5676 5679 5682 5685 5687 5689 5690 5691 5692 5693 5694 5695 5696 5697 5698 5700 5701 5703 5705 5707 5709 5711 5713 5714 5715 5715 5716 5717 5718 5720 5726 5726 5726 5724 5723 5723 5723 5724 5724
5653 5656 5658 5662 5665 5668 5671 5674 5676 5679 5681 5683 5685 5686 5687 5688 5689 5691 5692 5694 5695 5697 5699 5701 5703 5706 5708 5710 5711 5711 5712 5713 5714 5718 5721 5721 5722 5720 5719 5719 5720 5720 5720
5645 5647 5649 5651 5654 5656 5658 5661 5663 5666 5668 5671 5673 5676 5679 5681 5682 5684 5685 5687 5688 5690 5692 5695 5697 5699 5702 5704 5706 5707 5707 5708 5711 5715 5716 5717 5717 5715 5715 5715 5716 5716 5717
5635 5637 5639 5641 5642 5644 5645 5647 5649 5652 5655 5657 5660 5663 5667 5670 5673 5675 5677 5678 5681 5683 5685 5688 5690 5692 5695 5697 5699 5701 5702 5704 5707 5710 5711 5712 5712 5710 5710 5711 5712 5712 5713
5627 5628 5630 5630 5631 5632 5633 5633 5634 5636 5639 5643 5646 5649 5654 5658 5661 5664 5667 5669 5671 5674 5677 5679 5682 5684 5687 5690 5692 5695 5696 5699 5702 5705 5707 5708 5707 5705 5705 5707 5708 5708 5708
5619 5619 5619 5619 5620 5621 5622 5621 5622 5623 5625 5628 5630 5633 5638 5643 5647 5651 5654 5657 5661 5665 5667 5670 5673 5675 5678 5682 5685 5688 5690 5692 5697 5700 5701 5703 5702 5701 5701 5702 5703 5704 5704
5609 5608 5607 5607 5607 5608 5610 5610 5611 5611 5611 5614 5616 5618 5622 5626 5630 5635 5639 5643 5649 5653 5658 5661 5664 5666 5669 5673 5676 5679 5683 5689 5693 5694 5695 5696 5696 5696 5696 5697 5699 5700 5700
5597 5594 5593 5592 5592 5592 5594 5596 5597 5597 5597 5597 5598 5600 5604 5608 5613 5618 5624 5629 5635 5641 5646 5651 5654 5657 5661 5667 5670 5671 5677 5683 5686 5688 5689 5689 5689 5690 5691 5692 5694 5696 5696
5582 5580 5579 5577 5576 5575 5577 5578 5579 5579 5580 5581 5581 5583 5586 5590 5595 5601 5607 5614 5620 5626 5632 5638 5644 5649 5653 5657 5660 5665 5670 5674 5678 5682 5684 5682 5682 5684 5686 5687 5689 5691 5692
5568 5565 5562 5561 5559 5557 5557 5558 5559 5560 5561 5562 5562 5563 5566 5570 5574 5579 5586 5593 5601 5608 5614 5621 5628 5635 5641 5646 5649 5655 5660 5664 5669 5673 5676 5676 5676 5678 5680 5682 5684 5686 5688
5552 5548 5545 5542 5540 5537 5537 5536 5537 5537 5538 5540 5542 5543 5544 5548 5553 5557 5564 5571 5579 5587 5596 5605 5613 5621 5628 5634 5639 5644 5649 5654 5659 5663 5667 5668 5670 5672 5674 5676 5679 5682 5684
5535 5530 5526 5522 5519 5516 5514 5512 5511 5511 5512 5514 5517 5519 5521 5524 5528 5534 5541 5548 5557 5565 5574 5584 5595 5605 5614 5621 5627 5632 5637 5643 5648 5653 5657 5661 5663 5666 5668 5671 5673 5676 5679
5516 5510 5506 5501 5496 5493 5490 5487 5485 5484 5483 5485 5487 5490 5493 5497 5502 5509 5517 5526 5534 5541 5551 5563 5575 5586 5598 5606 5614 5621 5626 5631 5637 5642 5647 5652 5657 5659 5662 5665 5667 5671 5674
5497 5491 5485 5479 5474 5468 5463 5458 5456 5454 5453 5454 5456 5459 5462 5466 5473 5481 5491 5501 5509 5518 5528 5539 5552 5564 5577 5588 5599 5608 5615 5621 5626 5631 5637 5642 5647 5653 5657 5660 5662 5665 5668
5478 5470 5464 5456 5450 5443 5436 5429 5425 5422 5421 5422 5423 5426 5429 5435 5441 5450 5461 5472 5483 5493 5504 5515 5527 5539 5554 5567 5580 5592 5602 5610 5616 5621 5628 5634 5638 5644 5649 5655 5656 5659 5662
5455 5446 5439 5431 5424 5418 5412 5407 5403 5399 5396 5394 5393 5394 5397 5403 5410 5419 5431 5442 5454 5467 5479 5490 5502 5515 5530 5545 5561 5577 5589 5598 5605 5612 5618 5625 5630 5636 5641 5647 5651 5654 5657
5434 5424 5414 5406 5399 5394 5390 5387 5387 5385 5381 5378 5374 5372 5373 5376 5381 5389 5400 5412 5424 5438 5451 5464 5478 5492 5508 5524 5542 5561 5576 5587 5596 5603 5609 5615 5622 5628 5633 5638 5644 5649 5654
5413 5400 5389 5381 5376 5371 5366 5364 5363 5364 5364 5363 5361 5358 5357 5357 5359 5362 5369 5380 5394 5408 5424 5438 5451 5466 5482 5498 5514 5536 5560 5576 5588 5594 5600 5606 5612 5618 5624 5630 5635 5641 5647
5392 5379 5368 5362 5359 5355 5350 5349 5349 5350 5350 5349 5348 5345 5342 5341 5341 5342 5345 5351 5363 5377 5394 5410 5424 5441 5458 5471 5485 5505 5535 5560 5573 5585 5592 5597 5603 5609 5615 5621 5626 5632 5638
5372 5360 5352 5347 5344 5340 5337 5335 5333 5335 5335 5333 5331 5331 5330 5328 5327 5327 5327 5330 5337 5349 5365 5382 5399 5415 5431 5448 5463 5482 5502 5523 5544 5566 5578 5585 5591 5598 5605 5610 5616 5622 5628
5356 5347 5339 5334 5330 5326 5322 5318 5317 5316 5315 5315 5315 5316 5317 5317 5316 5315 5315 5315 5319 5327 5340 5357 5375 5393 5410 5426 5440 5456 5474 5495 5517 5536 5555 5570 5578 5585 5592 5598 5604 5610 5617
5342 5334 5327 5322 5317 5311 5306 5302 5298 5297 5297 5298 5299 5301 5303 5304 5305 5304 5304 5305 5308 5313 5323 5336 5354 5372 5390 5408 5424 5437 5452 5471 5498 5516 5533 5549 5563 5573 5578 5585 5593 5599 5605